Time,TemperatureF,DewpointF,PressureIn,WindDirection,WindDirectionDegrees,WindSpeedMPH,WindSpeedGustMPH,Humidity,HourlyPrecipIn,Conditions,Clouds,dailyrainin,SoftwareType,DateUTC
2013-01-20 00:05:00,38.1,28.0,29.84,West,269,2.0,8.0,67,0.00,,,0.00,weatherlink.com 1.10,2013-01-20 05:05:00,
2013-01-20 00:20:00,38.3,28.0,29.82,NE,47,2.0,10.0,67,0.00,,,0.00,weatherlink.com 1.10,2013-01-20 05:20:00,
2013-01-20 00:35:00,38.5,29.0,29.81,ESE,123,2.0,10.0,68,0.00,,,0.00,weatherlink.com 1.10,2013-01-20 05:35:00,
2013-01-20 00:50:00,38.5,29.0,29.81,WSW,251,5.0,6.0,69,0.00,,,0.00,weatherlink.com 1.10,2013-01-20 05:50:00,
2013-01-20 01:05:00,38.7,29.0,29.80,SW,228,0.0,10.0,68,0.00,,,0.00,weatherlink.com 1.10,2013-01-20 06:05:00,
2013-01-20 01:20:00,38.9,29.0,29.80,SW,223,2.0,11.0,68,0.00,,,0.00,weatherlink.com 1.10,2013-01-20 06:20:00,
2013-01-20 01:35:00,39.1,29.0,29.80,WSW,252,1.0,10.0,68,0.00,,,0.00,weatherlink.com 1.10,2013-01-20 06:35:00,
2013-01-20 01:50:00,39.1,29.0,29.80,WSW,250,2.0,13.0,68,0.00,,,0.00,weatherlink.com 1.10,2013-01-20 06:50:00,
2013-01-20 02:05:00,39.1,29.0,29.78,SSE,155,2.0,11.0,68,0.00,,,0.00,weatherlink.com 1.10,2013-01-20 07:05:00,
2013-01-20 02:20:00,39.0,29.0,29.78,WSW,250,10.0,12.0,68,0.00,,,0.00,weatherlink.com 1.10,2013-01-20 07:20:00,
2013-01-20 02:35:00,39.2,29.0,29.77,WNW,284,3.0,13.0,68,0.00,,,0.00,weatherlink.com 1.10,2013-01-20 07:35:00,
2013-01-20 02:50:00,39.2,29.0,29.75,SW,219,8.0,11.0,67,0.00,,,0.00,weatherlink.com 1.10,2013-01-20 07:50:00,
2013-01-20 03:06:00,38.9,29.0,29.74,SW,222,9.0,14.0,67,0.00,,,0.00,weatherlink.com 1.10,2013-01-20 08:06:00,
2013-01-20 03:21:00,38.4,29.0,29.73,SW,229,2.0,10.0,68,0.00,,,0.00,weatherlink.com 1.10,2013-01-20 08:21:00,
2013-01-20 03:36:00,38.2,28.0,29.72,WSW,249,4.0,15.0,68,0.00,,,0.00,weatherlink.com 1.10,2013-01-20 08:36:00,
2013-01-20 03:51:00,38.0,29.0,29.71,WSW,256,6.0,10.0,69,0.00,,,0.00,weatherlink.com 1.10,2013-01-20 08:51:00,
2013-01-20 04:06:00,37.7,28.0,29.70,ESE,120,3.0,12.0,69,0.00,,,0.00,weatherlink.com 1.10,2013-01-20 09:06:00,
2013-01-20 04:21:00,37.6,28.0,29.69,WSW,238,4.0,9.0,69,0.00,,,0.00,weatherlink.com 1.10,2013-01-20 09:21:00,
2013-01-20 04:36:00,37.6,29.0,29.69,SSW,205,4.0,18.0,70,0.00,,,0.00,weatherlink.com 1.10,2013-01-20 09:36:00,
2013-01-20 04:52:00,37.2,28.0,29.68,South,191,0.0,9.0,70,0.00,,,0.00,weatherlink.com 1.10,2013-01-20 09:52:00,
2013-01-20 05:06:00,37.2,28.0,29.66,WSW,253,5.0,11.0,70,0.00,,,0.00,weatherlink.com 1.10,2013-01-20 10:06:00,
2013-01-20 05:21:00,37.1,28.0,29.64,West,261,2.0,13.0,71,0.00,,,0.00,weatherlink.com 1.10,2013-01-20 10:21:00,
2013-01-20 05:36:00,37.0,28.0,29.63,SSW,207,2.0,13.0,71,0.00,,,0.00,weatherlink.com 1.10,2013-01-20 10:36:00,
2013-01-20 05:51:00,36.9,28.0,29.63,WNW,290,1.0,14.0,71,0.00,,,0.00,weatherlink.com 1.10,2013-01-20 10:51:00,
2013-01-20 06:06:00,36.8,28.0,29.61,ESE,122,4.0,17.0,71,0.00,,,0.00,weatherlink.com 1.10,2013-01-20 11:06:00,
2013-01-20 06:21:00,36.7,28.0,29.60,SW,220,8.0,10.0,71,0.00,,,0.00,weatherlink.com 1.10,2013-01-20 11:21:00,
2013-01-20 06:36:00,37.0,28.0,29.60,North,6,5.0,19.0,70,0.00,,,0.00,weatherlink.com 1.10,2013-01-20 11:36:00,
2013-01-20 06:51:00,37.1,28.0,29.60,SE,131,4.0,13.0,70,0.00,,,0.00,weatherlink.com 1.10,2013-01-20 11:51:00,
2013-01-20 07:06:00,36.8,28.0,29.58,West,259,4.0,17.0,71,0.00,,,0.00,weatherlink.com 1.10,2013-01-20 12:06:00,
2013-01-20 07:21:00,36.8,28.0,29.58,South,169,6.0,12.0,71,0.00,,,0.00,weatherlink.com 1.10,2013-01-20 12:21:00,
2013-01-20 07:38:00,37.2,28.0,29.57,SSW,205,4.0,19.0,70,0.00,,,0.00,weatherlink.com 1.10,2013-01-20 12:38:00,
2013-01-20 07:51:00,37.7,28.0,29.57,SW,221,3.0,20.0,69,0.00,,,0.00,weatherlink.com 1.10,2013-01-20 12:51:00,
2013-01-20 08:07:00,38.3,28.0,29.57,SSW,204,5.0,19.0,67,0.00,,,0.00,weatherlink.com 1.10,2013-01-20 13:07:00,
2013-01-20 08:22:00,39.3,28.0,29.57,ENE,68,6.0,16.0,65,0.00,,,0.00,weatherlink.com 1.10,2013-01-20 13:22:00,
2013-01-20 08:37:00,40.5,28.0,29.57,SW,224,8.0,22.0,62,0.00,,,0.00,weatherlink.com 1.10,2013-01-20 13:37:00,
2013-01-20 08:52:00,41.1,28.0,29.57,WSW,255,8.0,-999.0,61,-99.99,,,0.00,weatherlink.com 1.10,2013-01-20 13:52:00,
2013-01-20 09:07:00,41.7,29.0,29.57,West,269,9.0,24.0,60,0.00,,,0.00,weatherlink.com 1.10,2013-01-20 14:07:00,
2013-01-20 09:22:00,42.3,29.0,29.57,East,81,6.0,17.0,59,0.00,,,0.00,weatherlink.com 1.10,2013-01-20 14:22:00,
2013-01-20 09:37:00,42.8,29.0,29.56,WSW,256,5.0,22.0,58,0.00,,,0.00,weatherlink.com 1.10,2013-01-20 14:37:00,
2013-01-20 09:52:00,42.8,28.0,29.56,West,267,10.0,17.0,57,0.00,,,0.00,weatherlink.com 1.10,2013-01-20 14:52:00,
2013-01-20 10:07:00,43.5,29.0,29.55,WSW,239,11.0,18.0,56,0.00,,,0.00,weatherlink.com 1.10,2013-01-20 15:07:00,
2013-01-20 10:22:00,44.4,29.0,29.54,SW,228,9.0,16.0,55,0.00,,,0.00,weatherlink.com 1.10,2013-01-20 15:22:00,
2013-01-20 10:37:00,44.7,29.0,29.54,SW,225,12.0,16.0,54,0.00,,,0.00,weatherlink.com 1.10,2013-01-20 15:37:00,
2013-01-20 10:52:00,45.2,29.0,29.53,SSE,159,7.0,25.0,53,0.00,,,0.00,weatherlink.com 1.10,2013-01-20 15:52:00,
2013-01-20 11:07:00,45.3,29.0,29.52,SW,222,7.0,18.0,53,0.00,,,0.00,weatherlink.com 1.10,2013-01-20 16:07:00,
2013-01-20 11:22:00,44.9,29.0,29.51,WSW,240,6.0,16.0,54,0.00,,,0.00,weatherlink.com 1.10,2013-01-20 16:22:00,
2013-01-20 11:37:00,44.5,29.0,29.51,SW,225,7.0,19.0,55,0.00,,,0.00,weatherlink.com 1.10,2013-01-20 16:37:00,
2013-01-20 11:52:00,44.1,29.0,29.51,SW,235,3.0,14.0,56,0.00,,,0.00,weatherlink.com 1.10,2013-01-20 16:52:00,
2013-01-20 12:07:00,43.8,29.0,29.52,SSW,203,9.0,19.0,57,0.00,,,0.00,weatherlink.com 1.10,2013-01-20 17:07:00,
2013-01-20 12:22:00,43.6,29.0,29.53,West,271,12.0,20.0,57,0.00,,,0.00,weatherlink.com 1.10,2013-01-20 17:22:00,
2013-01-20 12:37:00,42.2,30.0,29.55,West,259,7.0,21.0,63,0.00,,,0.00,weatherlink.com 1.10,2013-01-20 17:37:00,
2013-01-20 12:52:00,41.1,30.0,29.55,NW,311,15.0,25.0,65,0.00,,,0.00,weatherlink.com 1.10,2013-01-20 17:52:00,
2013-01-20 13:07:00,39.4,28.0,29.56,SW,231,11.0,27.0,65,0.00,,,0.00,weatherlink.com 1.10,2013-01-20 18:07:00,
2013-01-20 13:22:00,39.4,27.0,29.57,West,274,16.0,21.0,61,0.00,,,0.00,weatherlink.com 1.10,2013-01-20 18:22:00,
2013-01-20 13:37:00,39.5,25.0,29.57,WNW,299,6.0,26.0,57,0.00,,,0.00,weatherlink.com 1.10,2013-01-20 18:37:00,
2013-01-20 13:52:00,39.5,25.0,29.56,West,274,15.0,21.0,57,0.00,,,0.00,weatherlink.com 1.10,2013-01-20 18:52:00,
2013-01-20 14:07:00,39.7,24.0,29.57,WSW,238,21.0,23.0,54,0.00,,,0.00,weatherlink.com 1.10,2013-01-20 19:07:00,
2013-01-20 14:22:00,40.2,23.0,29.57,SW,228,3.0,14.0,50,0.00,,,0.00,weatherlink.com 1.10,2013-01-20 19:22:00,
2013-01-20 14:37:00,40.8,21.0,29.58,West,274,3.0,20.0,46,0.00,,,0.00,weatherlink.com 1.10,2013-01-20 19:37:00,
2013-01-20 14:52:00,40.9,19.0,29.59,NW,310,5.0,17.0,41,0.00,,,0.00,weatherlink.com 1.10,2013-01-20 19:52:00,
2013-01-20 15:07:00,40.2,16.0,29.60,WNW,285,10.0,19.0,38,0.00,,,0.00,weatherlink.com 1.10,2013-01-20 20:07:00,
2013-01-20 15:22:00,39.1,15.0,29.61,West,271,5.0,20.0,37,0.00,,,0.00,weatherlink.com 1.10,2013-01-20 20:22:00,
2013-01-20 15:37:00,38.5,14.0,29.63,West,269,10.0,18.0,37,0.00,,,0.00,weatherlink.com 1.10,2013-01-20 20:37:00,
2013-01-20 15:52:00,37.6,15.0,29.65,SSW,194,7.0,18.0,39,0.00,,,0.00,weatherlink.com 1.10,2013-01-20 20:52:00,
2013-01-20 16:07:00,36.4,17.0,29.66,West,267,5.0,19.0,46,0.00,,,0.00,weatherlink.com 1.10,2013-01-20 21:07:00,
2013-01-20 16:23:00,34.8,17.0,29.68,WSW,243,12.0,17.0,48,0.00,,,0.00,weatherlink.com 1.10,2013-01-20 21:23:00,
2013-01-20 16:38:00,33.5,17.0,29.69,West,276,8.0,23.0,51,0.00,,,0.00,weatherlink.com 1.10,2013-01-20 21:38:00,
2013-01-20 16:53:00,32.8,16.0,29.71,WNW,301,12.0,25.0,51,0.00,,,0.00,weatherlink.com 1.10,2013-01-20 21:53:00,
2013-01-20 17:08:00,32.0,16.0,29.70,West,269,8.0,23.0,51,0.00,,,0.00,weatherlink.com 1.10,2013-01-20 22:08:00,
2013-01-20 17:23:00,31.5,16.0,29.72,West,270,12.0,25.0,52,0.00,,,0.00,weatherlink.com 1.10,2013-01-20 22:23:00,
2013-01-20 17:38:00,31.0,15.0,29.74,West,269,11.0,28.0,51,0.00,,,0.00,weatherlink.com 1.10,2013-01-20 22:38:00,
2013-01-20 17:53:00,30.1,14.0,29.75,West,274,10.0,26.0,51,0.00,,,0.00,weatherlink.com 1.10,2013-01-20 22:53:00,
2013-01-20 18:08:00,29.5,14.0,29.76,WSW,240,4.0,18.0,52,0.00,,,0.00,weatherlink.com 1.10,2013-01-20 23:08:00,
2013-01-20 18:23:00,29.0,14.0,29.77,WSW,248,8.0,18.0,54,0.00,,,0.00,weatherlink.com 1.10,2013-01-20 23:23:00,
2013-01-20 18:38:00,28.6,13.0,29.78,WSW,243,7.0,22.0,52,0.00,,,0.00,weatherlink.com 1.10,2013-01-20 23:38:00,
2013-01-20 18:53:00,28.0,11.0,29.78,SW,235,5.0,19.0,50,0.00,,,0.00,weatherlink.com 1.10,2013-01-20 23:53:00,
2013-01-20 19:08:00,27.3,11.0,29.79,WSW,248,10.0,15.0,50,0.00,,,0.00,weatherlink.com 1.10,2013-01-21 00:08:00,
2013-01-20 19:23:00,26.8,11.0,29.80,NW,314,1.0,14.0,51,0.00,,,0.00,weatherlink.com 1.10,2013-01-21 00:23:00,
2013-01-20 19:38:00,26.3,11.0,29.81,South,178,15.0,16.0,52,0.00,,,0.00,weatherlink.com 1.10,2013-01-21 00:38:00,
2013-01-20 19:53:00,26.1,11.0,29.82,West,269,4.0,13.0,52,0.00,,,0.00,weatherlink.com 1.10,2013-01-21 00:53:00,
2013-01-20 20:08:00,25.8,10.0,29.82,WNW,297,6.0,13.0,52,0.00,,,0.00,weatherlink.com 1.10,2013-01-21 01:08:00,
2013-01-20 20:23:00,25.7,11.0,29.82,WSW,248,2.0,15.0,54,0.00,,,0.00,weatherlink.com 1.10,2013-01-21 01:23:00,
2013-01-20 20:38:00,25.4,10.0,29.83,West,268,5.0,13.0,53,0.00,,,0.00,weatherlink.com 1.10,2013-01-21 01:38:00,
2013-01-20 20:53:00,25.4,10.0,29.83,WSW,257,2.0,11.0,53,0.00,,,0.00,weatherlink.com 1.10,2013-01-21 01:53:00,
2013-01-20 21:08:00,25.1,10.0,29.84,West,278,4.0,14.0,54,0.00,,,0.00,weatherlink.com 1.10,2013-01-21 02:08:00,
2013-01-20 21:23:00,25.1,11.0,29.85,SW,217,9.0,16.0,56,0.00,,,0.00,weatherlink.com 1.10,2013-01-21 02:23:00,
2013-01-20 21:39:00,25.0,11.0,29.85,WNW,285,5.0,13.0,56,0.00,,,0.00,weatherlink.com 1.10,2013-01-21 02:39:00,
2013-01-20 21:53:00,24.9,12.0,29.86,WSW,250,5.0,13.0,59,0.00,,,0.00,weatherlink.com 1.10,2013-01-21 02:53:00,
2013-01-20 22:09:00,24.7,12.0,29.87,WSW,243,7.0,13.0,60,0.00,,,0.00,weatherlink.com 1.10,2013-01-21 03:09:00,
2013-01-20 22:24:00,24.4,13.0,29.89,West,269,4.0,18.0,63,0.00,,,0.00,weatherlink.com 1.10,2013-01-21 03:24:00,
2013-01-20 22:39:00,23.6,14.0,29.89,WNW,291,7.0,14.0,68,0.00,,,0.00,weatherlink.com 1.10,2013-01-21 03:39:00,
2013-01-20 22:54:00,23.1,14.0,29.89,SW,225,5.0,16.0,67,0.00,,,0.00,weatherlink.com 1.10,2013-01-21 03:54:00,
2013-01-20 23:09:00,22.9,12.0,29.89,WNW,285,8.0,18.0,63,0.00,,,0.00,weatherlink.com 1.10,2013-01-21 04:09:00,
2013-01-20 23:24:00,22.8,11.0,29.89,WNW,295,2.0,8.0,62,0.00,,,0.00,weatherlink.com 1.10,2013-01-21 04:24:00,
2013-01-20 23:39:00,22.7,11.0,29.89,West,267,5.0,18.0,62,0.00,,,0.00,weatherlink.com 1.10,2013-01-21 04:39:00,
2013-01-20 23:54:00,22.6,11.0,29.90,West,259,6.0,14.0,61,0.00,,,0.00,weatherlink.com 1.10,2013-01-21 04:54:00,